StationID,Date,MaxTemp,MinTemp,Precipitation,Snowfall,SnowDepth
"CA001011860","1957-07-14",,,135.00,0.00,
"CA001011860","1957-07-15",,,0.00,0.00,
"CA001011860","1957-07-16",64.04,46.94,25.00,0.00,
"CA001011860","1957-07-17",69.98,46.94,,,
"CA001011860","1957-07-18",80.06,44.06,,,
"CA001011860","1957-07-19",80.96,46.94,,,
"CA001011860","1957-07-20",73.04,53.06,,,
"CA001011860","1957-07-21",76.10,46.94,,,
"CA001011860","1957-07-22",78.08,48.02,,,
"CA001011860","1957-07-23",73.04,49.10,,,
"CA001011860","1957-07-24",76.10,42.08,,,
"CA001011860","1957-07-25",69.98,42.98,0.00,0.00,
"CA001011860","1957-07-26",69.08,48.02,,,
"CA001011860","1957-07-27",58.10,51.08,,,
"CA001011860","1957-07-28",64.04,55.04,124.00,0.00,
"CA001011860","1957-07-29",71.96,49.10,,,
"CA001011860","1957-07-30",69.98,42.08,,,
"CA001011860","1957-07-31",71.06,41.00,,,
"CA001011860","1957-08-01",68.00,41.00,3.00,0.00,
"CA001011860","1957-08-02",73.04,39.92,0.00,0.00,
"CA001011860","1957-08-03",60.08,51.08,175.00,0.00,
"CA001011860","1957-08-04",68.00,53.06,0.00,0.00,
"CA001011860","1957-08-05",71.06,51.08,0.00,0.00,
"CA001011860","1957-08-06",71.96,48.02,0.00,0.00,
"CA001011860","1957-08-07",69.98,55.94,102.00,0.00,
"CA001011860","1957-08-08",66.02,50.00,0.00,0.00,
"CA001011860","1957-08-09",67.10,53.06,246.00,0.00,
"CA001011860","1957-08-10",67.10,51.98,89.00,0.00,
"CA001011860","1957-08-11",68.00,51.98,13.00,0.00,
"CA001011860","1957-08-12",71.06,53.06,0.00,0.00,
"CA001011860","1957-08-13",68.00,50.00,48.00,0.00,
"CA001011860","1957-08-14",73.04,44.06,0.00,0.00,
"CA001011860","1957-08-15",78.98,44.96,0.00,0.00,
"CA001011860","1957-08-16",78.08,49.10,0.00,0.00,
"CA001011860","1957-08-17",76.10,48.02,0.00,0.00,
"CA001011860","1957-08-18",74.12,48.02,0.00,0.00,
"CA001011860","1957-08-19",73.04,53.96,0.00,0.00,
"CA001011860","1957-08-20",71.96,50.00,0.00,0.00,
"CA001011860","1957-08-21",80.06,42.98,0.00,0.00,
"CA001011860","1957-08-22",80.96,46.04,41.00,0.00,
"CA001011860","1957-08-23",74.12,53.96,0.00,0.00,
"CA001011860","1957-08-24",67.10,51.08,170.00,0.00,
"CA001011860","1957-08-25",69.98,48.02,0.00,0.00,
"CA001011860","1957-08-26",71.96,39.92,0.00,0.00,
"CA001011860","1957-08-27",73.04,41.00,0.00,0.00,
"CA001011860","1957-08-28",74.12,39.92,0.00,0.00,
"CA001011860","1957-08-29",73.04,39.92,8.00,0.00,
"CA001011860","1957-08-30",75.02,41.00,0.00,0.00,
"CA001011860","1957-08-31",69.08,50.00,0.00,0.00,
"CA001011860","1957-09-01",71.96,49.10,20.00,0.00,
"CA001011860","1957-09-02",73.04,50.00,0.00,0.00,
"CA001011860","1957-09-03",77.00,46.94,0.00,0.00,
"CA001011860","1957-09-04",78.08,44.96,0.00,0.00,
"CA001011860","1957-09-05",64.04,55.04,71.00,0.00,
"CA001011860","1957-09-06",73.04,60.08,41.00,0.00,
"CA001011860","1957-09-07",68.00,44.06,0.00,0.00,
"CA001011860","1957-09-08",69.08,42.08,0.00,0.00,
"CA001011860","1957-09-09",74.12,42.08,0.00,0.00,
"CA001011860","1957-09-10",80.96,42.08,0.00,0.00,
"CA001011860","1957-09-11",82.04,44.06,0.00,0.00,
"CA001011860","1957-09-12",83.12,46.94,0.00,0.00,
"CA001011860","1957-09-13",85.10,46.94,0.00,0.00,
"CA001011860","1957-09-14",84.02,42.98,0.00,0.00,
"CA001011860","1957-09-15",80.06,44.96,0.00,0.00,
"CA001011860","1957-09-16",66.02,44.96,0.00,0.00,
"CA001011860","1957-09-17",66.02,55.94,0.00,0.00,
"CA001011860","1957-09-18",71.96,37.04,0.00,0.00,
"CA001011860","1957-09-19",71.96,30.92,0.00,0.00,
"CA001011860","1957-09-20",69.98,39.02,0.00,0.00,
"CA001011860","1957-09-21",73.04,37.04,0.00,0.00,
"CA001011860","1957-09-22",78.08,37.94,0.00,0.00,
"CA001011860","1957-09-23",80.06,39.02,0.00,0.00,
"CA001011860","1957-09-24",78.08,42.08,0.00,0.00,
"CA001011860","1957-09-25",69.08,44.96,0.00,0.00,
"CA001011860","1957-09-26",62.96,48.02,33.00,0.00,
"CA001011860","1957-09-27",64.04,51.08,18.00,0.00,
"CA001011860","1957-09-28",69.98,51.98,0.00,0.00,
"CA001011860","1957-09-29",76.10,37.94,0.00,0.00,
"CA001011860","1957-09-30",78.98,42.08,0.00,0.00,
"CA001011860","1957-10-01",69.08,48.02,20.00,0.00,
"CA001011860","1957-10-02",57.02,42.98,53.00,0.00,
"CA001011860","1957-10-03",55.94,33.08,8.00,0.00,
"CA001011860","1957-10-04",53.96,33.08,0.00,0.00,
"CA001011860","1958-05-01",,,0.00,0.00,
"CA001011860","1958-05-02",,39.02,0.00,0.00,
"CA001011860","1958-05-03",64.04,41.00,0.00,0.00,
"CA001011860","1958-05-04",62.96,37.94,0.00,0.00,
"CA001011860","1958-05-05",62.96,44.96,0.00,0.00,
"CA001011860","1958-05-06",60.98,33.08,0.00,0.00,
"CA001011860","1958-05-07",60.08,35.96,0.00,0.00,
"CA001011860","1958-05-08",69.08,37.04,0.00,0.00,
"CA001011860","1958-05-09",66.02,39.02,0.00,0.00,
"CA001011860","1958-05-10",62.96,42.98,0.00,0.00,
"CA001011860","1958-05-11",58.10,35.96,0.00,0.00,
"CA001011860","1958-05-12",59.00,28.04,0.00,0.00,
"CA001011860","1958-05-13",62.96,30.92,0.00,0.00,
"CA001011860","1958-05-14",71.96,35.06,0.00,0.00,
"CA001011860","1958-05-15",78.98,37.94,0.00,0.00,
"CA001011860","1958-05-16",71.06,35.96,0.00,0.00,
"CA001011860","1958-05-17",78.98,33.98,0.00,0.00,
"CA001011860","1958-05-18",86.00,39.02,33.00,0.00,
"CA001011860","1958-05-19",64.94,53.96,38.00,0.00,
"CA001011860","1958-05-20",76.10,42.08,0.00,0.00,
"CA001011860","1958-05-21",77.00,44.96,0.00,0.00,
"CA001011860","1958-05-22",82.04,42.98,0.00,0.00,
"CA001011860","1958-05-23",80.06,58.10,0.00,0.00,
"CA001011860","1958-05-24",82.04,46.04,0.00,0.00,
"CA001011860","1958-05-25",82.04,48.02,0.00,0.00,
"CA001011860","1958-05-26",87.98,50.00,0.00,0.00,
"CA001011860","1958-05-27",80.06,50.00,53.00,0.00,
"CA001011860","1958-05-28",68.00,55.04,0.00,0.00,
"CA001011860","1958-05-29",62.06,48.02,76.00,0.00,
"CA001011860","1958-05-30",60.98,48.02,0.00,0.00,
"CA001011860","1958-05-31",60.98,53.06,109.00,0.00,
"CA001011860","1958-06-01",64.04,44.96,3.00,0.00,
"CA001011860","1958-06-02",71.96,44.06,0.00,0.00,
"CA001011860","1958-06-03",75.02,44.06,91.00,0.00,
"CA001011860","1958-06-04",78.08,48.02,0.00,0.00,
"CA001011860","1958-06-05",87.08,50.00,0.00,0.00,
"CA001011860","1958-06-06",76.10,53.06,36.00,0.00,
"CA001011860","1958-06-07",67.10,55.04,15.00,0.00,
"CA001011860","1958-06-08",71.96,51.98,0.00,0.00,
"CA001011860","1958-06-09",67.10,55.04,0.00,0.00,
"CA001011860","1958-06-10",66.02,51.98,0.00,0.00,
"CA001011860","1958-06-11",64.04,46.94,20.00,0.00,
"CA001011860","1958-06-12",71.06,48.02,0.00,0.00,
"CA001011860","1958-06-13",71.06,46.94,0.00,0.00,
"CA001011860","1958-06-14",73.04,50.00,0.00,0.00,
"CA001011860","1958-06-15",77.00,48.02,0.00,0.00,
"CA001011860","1958-06-16",87.98,46.04,0.00,0.00,
"CA001011860","1958-06-17",91.04,51.08,0.00,0.00,
"CA001011860","1958-06-18",91.04,51.08,0.00,0.00,
"CA001011860","1958-06-19",87.08,51.98,0.00,0.00,
"CA001011860","1958-06-20",82.04,53.06,0.00,0.00,
"CA001011860","1958-06-21",87.98,53.06,0.00,0.00,
"CA001011860","1958-06-22",89.06,55.04,0.00,0.00,
"CA001011860","1958-06-23",83.12,55.94,58.00,0.00,
"CA001011860","1958-06-24",62.96,57.02,84.00,0.00,
"CA001011860","1958-06-25",66.02,58.10,3.00,0.00,
"CA001011860","1958-06-26",78.08,55.04,147.00,0.00,
"CA001011860","1958-06-27",66.02,53.96,0.00,0.00,
"CA001011860","1958-06-28",67.10,51.08,20.00,0.00,
"CA001011860","1958-06-29",66.02,50.00,18.00,0.00,
"CA001011860","1958-06-30",66.02,44.06,0.00,0.00,
"CA001011860","1958-07-01",73.04,44.06,0.00,0.00,
"CA001011860","1958-07-02",82.04,49.10,0.00,0.00,
"CA001011860","1958-07-03",85.10,53.06,0.00,0.00,
"CA001011860","1958-07-04",87.08,51.98,0.00,0.00,
"CA001011860","1958-07-05",87.98,53.96,0.00,0.00,
"CA001011860","1958-07-06",89.96,53.96,0.00,0.00,
"CA001011860","1958-07-07",84.02,53.96,0.00,0.00,
"CA001011860","1958-07-08",75.02,51.98,0.00,0.00,
"CA001011860","1958-07-09",78.98,50.00,0.00,0.00,
"CA001011860","1958-07-10",84.02,51.98,0.00,0.00,
"CA001011860","1958-07-11",83.12,57.02,0.00,0.00,
"CA001011860","1958-07-12",74.12,49.10,0.00,0.00,
"CA001011860","1958-07-13",75.02,44.06,0.00,0.00,
"CA001011860","1958-07-14",85.10,44.06,0.00,0.00,
"CA001011860","1958-07-15",91.04,46.94,0.00,0.00,
"CA001011860","1958-07-16",93.02,50.00,0.00,0.00,
"CA001011860","1958-07-17",91.04,51.98,0.00,0.00,
"CA001011860","1958-07-18",82.04,50.00,0.00,0.00,
"CA001011860","1958-07-19",78.08,48.02,0.00,0.00,
"CA001011860","1958-07-20",80.96,49.10,0.00,0.00,
"CA001011860","1958-07-21",84.02,53.06,0.00,0.00,
"CA001011860","1958-07-22",82.04,51.98,0.00,0.00,
"CA001011860","1958-07-23",89.06,46.94,0.00,0.00,
"CA001011860","1958-07-24",87.08,44.96,0.00,0.00,
"CA001011860","1958-07-25",89.06,51.08,0.00,0.00,
"CA001011860","1958-07-26",91.04,53.06,0.00,0.00,
"CA001011860","1958-07-27",96.98,53.96,0.00,0.00,
"CA001011860","1958-07-28",98.06,55.94,0.00,0.00,
"CA001011860","1958-07-29",83.12,58.10,0.00,0.00,
"CA001011860","1958-07-30",82.04,50.00,0.00,0.00,
"CA001011860","1958-07-31",78.98,51.08,0.00,0.00,
"CA001011860","1958-08-01",78.08,44.96,0.00,0.00,
"CA001011860","1958-08-02",80.06,46.04,3.00,0.00,
"CA001011860","1958-08-03",74.12,55.04,0.00,0.00,
"CA001011860","1958-08-04",75.02,46.04,0.00,0.00,
"CA001011860","1958-08-05",83.12,46.04,0.00,0.00,
"CA001011860","1958-08-06",71.96,53.96,20.00,0.00,
"CA001011860","1958-08-07",71.06,53.96,0.00,0.00,
"CA001011860","1958-08-08",76.10,50.00,0.00,0.00,
"CA001011860","1958-08-09",78.08,44.06,0.00,0.00,
"CA001011860","1958-08-10",82.04,44.96,0.00,0.00,
"CA001011860","1958-08-11",85.10,46.04,0.00,0.00,
"CA001011860","1958-08-12",83.12,46.04,0.00,0.00,
"CA001011860","1958-08-13",82.04,50.00,0.00,0.00,
"CA001011860","1958-08-14",84.02,50.00,0.00,0.00,
"CA001011860","1958-08-15",85.10,51.08,0.00,0.00,
"CA001011860","1958-08-16",82.04,48.02,0.00,0.00,
"CA001011860","1958-08-17",80.06,46.04,0.00,0.00,
"CA001011860","1958-08-18",78.98,46.04,0.00,0.00,
"CA001011860","1958-08-19",83.12,44.96,0.00,0.00,
"CA001011860","1958-08-20",89.06,44.96,0.00,0.00,
"CA001011860","1958-08-21",87.98,46.04,0.00,0.00,
"CA001011860","1958-08-22",87.08,50.00,0.00,0.00,
"CA001011860","1958-08-23",87.08,50.00,0.00,0.00,
"CA001011860","1958-08-24",92.12,51.08,0.00,0.00,
"CA001011860","1958-08-25",83.12,51.98,0.00,0.00,
"CA001011860","1958-08-26",73.04,51.08,,0.00,
"CA001011860","1958-08-27",60.08,55.04,,0.00,
"CA001011860","1958-08-28",60.08,42.08,46.00,0.00,
"CA001011860","1958-08-29",71.96,49.10,0.00,0.00,
"CA001011860","1958-08-30",69.98,49.10,0.00,0.00,
"CA001011860","1958-08-31",69.98,53.96,107.00,0.00,
"CA001011860","1958-09-01",69.08,42.98,13.00,0.00,
"CA001011860","1958-09-02",66.02,42.08,0.00,0.00,
"CA001011860","1958-09-03",69.08,37.94,0.00,0.00,
"CA001011860","1958-09-04",71.96,39.92,0.00,0.00,
"CA001011860","1958-09-05",76.10,48.02,0.00,0.00,
"CA001011860","1958-09-06",78.98,44.96,0.00,0.00,
"CA001011860","1958-09-07",82.04,39.92,0.00,0.00,
"CA001011860","1958-09-08",73.04,51.08,15.00,0.00,
"CA001011860","1958-09-09",68.00,55.94,25.00,0.00,
"CA001011860","1958-09-10",71.06,50.00,46.00,0.00,
"CA001011860","1958-09-11",69.98,44.96,0.00,0.00,
"CA001011860","1958-09-12",69.98,44.96,0.00,0.00,
"CA001011860","1958-09-13",73.04,46.94,0.00,0.00,
"CA001011860","1958-09-14",71.06,53.06,0.00,0.00,
"CA001011860","1958-09-15",64.04,46.04,97.00,0.00,
"CA001011860","1958-09-16",66.02,55.94,0.00,0.00,
"CA001011860","1958-09-17",68.00,50.00,13.00,0.00,
"CA001011860","1958-09-18",58.10,51.08,91.00,0.00,
"CA001011860","1958-09-19",66.02,46.94,0.00,0.00,
"CA001011860","1958-09-20",57.02,39.92,145.00,0.00,
"CA001011860","1958-09-21",62.06,46.94,0.00,0.00,
"CA001011860","1958-09-22",55.04,39.92,53.00,0.00,
"CA001011860","1958-09-23",59.00,30.92,0.00,0.00,
"CA001011860","1958-09-24",49.10,37.94,140.00,0.00,
"CA001011860","1958-09-25",66.02,35.96,0.00,0.00,
"CA001011860","1958-09-26",59.00,50.00,0.00,0.00,
"CA001011860","1958-09-27",69.08,41.00,0.00,0.00,
"CA001011860","1958-09-28",69.08,42.08,0.00,0.00,
"CA001011860","1958-09-29",67.10,42.98,0.00,0.00,
"CA001011860","1958-09-30",69.08,33.98,0.00,0.00,
"CA001011860","1958-10-01",69.98,39.02,,,
"CA001011860","1958-10-02",73.04,39.92,,,
"CA001011860","1958-10-03",73.04,37.94,,,
"CA001011860","1958-10-04",68.00,39.92,,,
"CA001011860","1958-10-05",64.04,37.04,,,
"CA001011860","1958-10-06",59.00,39.02,,,
"CA001011860","1958-10-07",57.02,48.02,,,
"CA001011860","1958-10-08",59.00,35.96,,,
"CA001011860","1958-10-09",46.04,39.02,,,
"CA001011860","1958-10-10",,42.98,,,
"CA001011860","1959-05-01",,,0.00,0.00,
"CA001011860","1959-05-02",,,0.00,0.00,
"CA001011860","1959-05-03",,,178.00,0.00,
"CA001011860","1959-05-04",51.98,33.98,0.00,0.00,
"CA001011860","1959-05-05",59.00,28.94,0.00,0.00,
"CA001011860","1959-05-06",64.94,30.92,0.00,0.00,
"CA001011860","1959-05-07",69.98,33.98,15.00,0.00,
"CA001011860","1959-05-08",59.00,44.06,5.00,0.00,
"CA001011860","1959-05-09",60.08,39.92,18.00,0.00,
"CA001011860","1959-05-10",55.04,44.06,43.00,0.00,
"CA001011860","1959-05-11",58.10,32.00,0.00,0.00,
"CA001011860","1959-05-12",73.04,30.92,0.00,0.00,
"CA001011860","1959-05-13",84.02,37.94,0.00,0.00,
"CA001011860","1959-05-14",58.10,51.08,107.00,0.00,
"CA001011860","1959-05-15",53.06,46.04,46.00,0.00,
"CA001011860","1959-05-16",53.06,42.08,20.00,0.00,
"CA001011860","1959-05-17",55.04,44.96,13.00,0.00,
"CA001011860","1959-05-18",59.00,35.96,0.00,0.00,
"CA001011860","1959-05-19",60.08,39.92,0.00,0.00,
"CA001011860","1959-05-20",62.96,35.06,5.00,0.00,
"CA001011860","1959-05-21",69.98,35.96,0.00,0.00,
"CA001011860","1959-05-22",76.10,37.94,0.00,0.00,
"CA001011860","1959-05-23",80.06,39.02,0.00,0.00,
"CA001011860","1959-05-24",66.02,41.00,0.00,0.00,
"CA001011860","1959-05-25",62.06,42.98,0.00,0.00,
"CA001011860","1959-05-26",60.08,44.96,112.00,0.00,
"CA001011860","1959-05-27",62.06,42.08,5.00,0.00,
"CA001011860","1959-05-28",62.96,37.04,20.00,0.00,
"CA001011860","1959-05-29",64.04,39.02,0.00,0.00,
"CA001011860","1959-05-30",69.08,37.04,0.00,0.00,
"CA001011860","1959-05-31",73.04,39.92,0.00,0.00,
"CA001011860","1959-06-01",80.96,42.08,0.00,0.00,
"CA001011860","1959-06-02",68.00,46.94,33.00,0.00,
"CA001011860","1959-06-03",64.94,42.08,0.00,0.00,
"CA001011860","1959-06-04",60.98,50.00,109.00,0.00,
"CA001011860","1959-06-05",60.08,39.02,0.00,0.00,
"CA001011860","1959-06-06",64.04,41.00,0.00,0.00,
"CA001011860","1959-06-07",60.08,39.92,41.00,0.00,
"CA001011860","1959-06-08",62.06,46.94,10.00,0.00,
"CA001011860","1959-06-09",58.10,46.04,188.00,0.00,
"CA001011860","1959-06-10",60.08,37.94,41.00,0.00,
"CA001011860","1959-06-11",62.06,50.00,20.00,0.00,
"CA001011860","1959-06-12",64.94,46.04,10.00,0.00,
"CA001011860","1959-06-13",67.10,37.94,0.00,0.00,
"CA001011860","1959-06-14",64.04,42.98,0.00,0.00,
"CA001011860","1959-06-15",68.00,35.96,0.00,0.00,
"CA001011860","1959-06-16",68.00,37.94,0.00,0.00,
"CA001011860","1959-06-17",69.98,42.98,0.00,0.00,
"CA001011860","1959-06-18",77.00,42.08,0.00,0.00,
"CA001011860","1959-06-19",83.12,50.00,5.00,0.00,
"CA001011860","1959-06-20",78.08,57.02,0.00,0.00,
"CA001011860","1959-06-21",71.96,51.08,0.00,0.00,
"CA001011860","1959-06-22",73.04,44.06,0.00,0.00,
"CA001011860","1959-06-23",68.00,50.00,0.00,0.00,
"CA001011860","1959-06-24",69.08,50.00,3.00,0.00,
"CA001011860","1959-06-25",69.98,42.98,0.00,0.00,
"CA001011860","1959-06-26",68.00,41.00,13.00,0.00,
"CA001011860","1959-06-27",64.94,44.06,86.00,0.00,
"CA001011860","1959-06-28",69.98,42.08,0.00,0.00,
"CA001011860","1959-06-29",71.06,48.02,0.00,0.00,
"CA001011860","1959-06-30",75.02,44.06,0.00,0.00,
"CA001011860","1959-07-01",75.02,49.10,10.00,0.00,
"CA001011860","1959-07-02",62.96,48.02,8.00,0.00,
"CA001011860","1959-07-03",66.02,50.00,56.00,0.00,
"CA001011860","1959-07-04",69.08,48.02,43.00,0.00,
"CA001011860","1959-07-05",62.06,51.08,13.00,0.00,
"CA001011860","1959-07-06",60.98,46.04,13.00,0.00,
"CA001011860","1959-07-07",67.10,46.94,0.00,0.00,
"CA001011860","1959-07-08",73.04,44.96,0.00,0.00,
"CA001011860","1959-07-09",84.02,42.98,0.00,0.00,
"CA001011860","1959-07-10",84.02,48.02,0.00,0.00,
"CA001011860","1959-07-11",84.02,48.02,0.00,0.00,
"CA001011860","1959-07-12",77.00,46.94,0.00,0.00,
"CA001011860","1959-07-13",73.04,46.94,0.00,0.00,
"CA001011860","1959-07-14",77.00,44.96,0.00,0.00,
"CA001011860","1959-07-15",77.00,46.94,0.00,0.00,
"CA001011860","1959-07-16",86.00,44.96,0.00,0.00,
"CA001011860","1959-07-17",89.06,44.96,0.00,0.00,
"CA001011860","1959-07-18",91.04,48.02,0.00,0.00,
"CA001011860","1959-07-19",87.08,49.10,0.00,0.00,
"CA001011860","1959-07-20",84.02,51.08,0.00,0.00,
"CA001011860","1959-07-21",87.08,51.08,0.00,0.00,
"CA001011860","1959-07-22",89.06,53.96,0.00,0.00,
"CA001011860","1959-07-23",78.08,55.94,0.00,0.00,
"CA001011860","1959-07-24",74.12,53.96,0.00,0.00,
"CA001011860","1959-07-25",74.12,51.08,0.00,0.00,
"CA001011860","1959-07-26",73.04,42.08,0.00,0.00,
"CA001011860","1959-07-27",66.02,35.96,48.00,0.00,
"CA001011860","1959-07-28",62.96,48.02,0.00,0.00,
"CA001011860","1959-07-29",77.00,39.02,0.00,0.00,
"CA001011860","1959-07-30",87.08,42.98,0.00,0.00,
"CA001011860","1959-07-31",89.96,48.02,0.00,0.00,
"CA001011860","1959-08-01",77.00,48.02,0.00,0.00,
"CA001011860","1959-08-02",71.96,41.00,0.00,0.00,
"CA001011860","1959-08-03",67.10,50.00,0.00,0.00,
"CA001011860","1959-08-04",73.04,51.08,0.00,0.00,
"CA001011860","1959-08-05",74.12,39.92,0.00,0.00,
"CA001011860","1959-08-06",80.96,42.98,0.00,0.00,
"CA001011860","1959-08-07",80.96,46.94,0.00,0.00,
"CA001011860","1959-08-08",75.02,44.96,0.00,0.00,
"CA001011860","1959-08-09",75.02,42.08,0.00,0.00,
"CA001011860","1959-08-10",78.98,46.04,0.00,0.00,
"CA001011860","1959-08-11",71.96,46.04,0.00,0.00,
"CA001011860","1959-08-12",71.96,46.04,3.00,0.00,
"CA001011860","1959-08-13",76.10,44.96,0.00,0.00,
"CA001011860","1959-08-14",67.10,49.10,8.00,0.00,
"CA001011860","1959-08-15",73.04,50.00,0.00,0.00,
"CA001011860","1959-08-16",68.00,49.10,0.00,0.00,
"CA001011860","1959-08-17",68.00,53.96,0.00,0.00,
"CA001011860","1959-08-18",68.00,42.08,23.00,0.00,
"CA001011860","1959-08-19",77.00,39.02,0.00,0.00,
"CA001011860","1959-08-20",80.96,41.00,0.00,0.00,
"CA001011860","1959-08-21",68.00,44.96,0.00,0.00,
"CA001011860","1959-08-22",73.04,51.98,0.00,0.00,
"CA001011860","1959-08-23",67.10,44.96,5.00,0.00,
"CA001011860","1959-08-24",74.12,37.04,0.00,0.00,
"CA001011860","1959-08-25",74.12,41.00,0.00,0.00,
"CA001011860","1959-08-26",68.00,51.98,0.00,0.00,
"CA001011860","1959-08-27",71.06,51.08,0.00,0.00,
"CA001011860","1959-08-28",67.10,44.96,0.00,0.00,
"CA001011860","1959-08-29",71.06,37.94,0.00,0.00,
"CA001011860","1959-08-30",71.96,42.08,107.00,0.00,
"CA001011860","1959-08-31",67.10,51.08,0.00,0.00,
"CA001011860","1959-09-01",71.06,39.02,0.00,0.00,
"CA001011860","1959-09-02",75.02,39.02,0.00,0.00,
"CA001011860","1959-09-03",,49.10,61.00,0.00,
"CA001011860","1959-09-04",,48.02,104.00,0.00,
"CA001011860","1959-09-05",,50.00,89.00,0.00,
"CA001011860","1959-09-06",,49.10,18.00,0.00,
"CA001011860","1959-09-07",,48.02,137.00,0.00,
"CA001011860","1959-09-08",,35.06,0.00,0.00,
"CA001011860","1959-09-09",,35.96,0.00,0.00,
"CA001011860","1959-09-10",,35.96,0.00,0.00,
"CA001011860","1959-09-11",,41.00,0.00,0.00,
"CA001011860","1959-09-12",,44.96,0.00,0.00,
"CA001011860","1959-09-13",,46.04,38.00,0.00,
"CA001011860","1959-09-14",,46.94,0.00,0.00,
"CA001011860","1959-09-15",,48.02,41.00,0.00,
"CA001011860","1959-09-16",,49.10,0.00,0.00,
"CA001011860","1959-09-17",,37.04,13.00,0.00,
"CA001011860","1959-09-18",,,191.00,0.00,
"CA001011860","1959-09-19",,,183.00,0.00,
"CA001011860","1959-09-20",,51.98,10.00,0.00,
"CA001011860","1959-09-21",,44.96,0.00,0.00,
"CA001011860","1959-09-22",,44.06,0.00,0.00,
"CA001011860","1959-09-23",66.02,37.04,99.00,0.00,
"CA001011860","1959-09-24",59.00,51.08,64.00,0.00,
"CA001011860","1959-09-25",58.10,42.98,99.00,0.00,
"CA001011860","1959-09-26",60.98,48.02,36.00,0.00,
"CA001011860","1959-09-27",62.06,33.08,15.00,0.00,
"CA001011860","1959-09-28",62.06,32.00,0.00,0.00,
"CA001011860","1959-09-29",57.02,42.98,0.00,0.00,
"CA001011860","1959-09-30",64.04,33.98,0.00,0.00,
